When you browse on this site, cookies collect data to enhance your experience and personalize the content and advertising you see.
Visit our Privacy Policy to learn more. By continuing to use the site, you agree to this use of cookies and data.
  • In Österreich
  • Länderverzeichnis
  • Für 7 Tage
  • Wassertemperatur
  • Wetterkarte
  • News
  • Widgets
  • user-avatar
    Anmelden

    Stündliche Wetter Quito

    Heute, 7 Dezember, Samstag

    Zeit Temperatur Niederschläge Wind Luftdruck Luftfeuchtigkeit
    00:00 +18°C° 0 mm 1 m/S 620 mmHg 94%
    01:00 +16°C° 0 mm 2 m/S 620 mmHg 95%
    02:00 +16°C° 0.3 mm 2 m/S 620 mmHg 94%
    03:00 +16°C° 0.3 mm 2 m/S 620 mmHg 94%
    04:00 +16°C° 0.3 mm 2 m/S 620 mmHg 93%
    05:00 +17°C° 0 mm 2 m/S 620 mmHg 92%
    06:00 +18°C° 0 mm 1 m/S 621 mmHg 91%
    07:00 +19°C° 0 mm 1 m/S 622 mmHg 89%
    08:00 +21°C° 0.8 mm 1 m/S 622 mmHg 86%
    09:00 +21°C° 0.8 mm 2 m/S 622 mmHg 83%
    10:00 +23°C° 0.8 mm 2 m/S 622 mmHg 80%
    11:00 +23°C° 2 mm 2 m/S 622 mmHg 82%
    12:00 +23°C° 2 mm 1 m/S 621 mmHg 83%
    13:00 +23°C° 0 mm 1 m/S 621 mmHg 82%
    14:00 +22°C° 2.5 mm 1 m/S 621 mmHg 85%
    15:00 +21°C° 2.5 mm 1 m/S 620 mmHg 88%
    16:00 +21°C° 2.5 mm 1 m/S 619 mmHg 92%
    17:00 +20°C° 2.5 mm 1 m/S 620 mmHg 93%
    18:00 +19°C° 2.5 mm 1 m/S 620 mmHg 95%
    19:00 +19°C° 2.5 mm 1 m/S 620 mmHg 97%
    20:00 +18°C° 4.1 mm 1 m/S 621 mmHg 97%
    21:00 +18°C° 4.1 mm 1 m/S 621 mmHg 97%
    22:00 +17°C° 4.1 mm 2 m/S 621 mmHg 97%
    23:00 +17°C° 2.2 mm 2 m/S 621 mmHg 97%

    Morgen, 8 Dezember, Sonntag

    Zeit Temperatur Niederschläge Wind Luftdruck Luftfeuchtigkeit
    00:00 +17°C° 2.2 mm 2 m/S 621 mmHg 97%
    01:00 +16°C° 2.2 mm 2 m/S 620 mmHg 97%
    02:00 +16°C° 1 mm 2 m/S 620 mmHg 97%
    03:00 +16°C° 1 mm 2 m/S 620 mmHg 97%
    04:00 +16°C° 1 mm 2 m/S 620 mmHg 97%
    05:00 +16°C° 0.8 mm 2 m/S 620 mmHg 96%
    06:00 +16°C° 0.8 mm 2 m/S 621 mmHg 96%
    07:00 +16°C° 0.8 mm 2 m/S 621 mmHg 96%
    08:00 +17°C° 0.4 mm 2 m/S 621 mmHg 93%
    09:00 +18°C° 0.4 mm 2 m/S 622 mmHg 91%
    10:00 +19°C° 0.4 mm 2 m/S 622 mmHg 88%
    11:00 +19°C° 0.2 mm 2 m/S 621 mmHg 86%
    12:00 +20°C° 0.2 mm 2 m/S 621 mmHg 83%
    13:00 +22°C° 0.2 mm 1 m/S 621 mmHg 80%
    14:00 +22°C° 0.2 mm 1 m/S 620 mmHg 78%
    15:00 +23°C° 0.2 mm 1 m/S 620 mmHg 75%
    16:00 +23°C° 0.2 mm 1 m/S 620 mmHg 73%
    17:00 +22°C° 0.4 mm 1 m/S 620 mmHg 79%
    18:00 +20°C° 0.4 mm 1 m/S 620 mmHg 85%
    19:00 +19°C° 0.4 mm 1 m/S 620 mmHg 91%
    20:00 +19°C° 0.6 mm 1 m/S 620 mmHg 92%
    21:00 +18°C° 0.6 mm 2 m/S 621 mmHg 92%
    22:00 +18°C° 0.6 mm 2 m/S 621 mmHg 92%
    23:00 +17°C° 0.1 mm 2 m/S 621 mmHg 93%

    übermorgen, 9 Dezember, Montag

    Zeit Temperatur Niederschläge Wind Luftdruck Luftfeuchtigkeit
    00:00 +17°C° 0.1 mm 2 m/S 620 mmHg 94%
    01:00 +18°C° 0.1 mm 1 m/S 620 mmHg 95%
    02:00 +18°C° 0.1 mm 1 m/S 620 mmHg 94%
    03:00 +18°C° 0.1 mm 1 m/S 619 mmHg 94%
    04:00 +18°C° 0.1 mm 1 m/S 619 mmHg 94%
    05:00 +18°C° 0 mm 1 m/S 620 mmHg 92%
    06:00 +19°C° 0 mm 1 m/S 621 mmHg 91%
    07:00 +19°C° 0 mm 1 m/S 621 mmHg 89%
    08:00 +21°C° 0.3 mm 1 m/S 622 mmHg 83%
    09:00 +23°C° 0.3 mm 1 m/S 622 mmHg 76%
    10:00 +25°C° 0.3 mm 1 m/S 623 mmHg 70%
    11:00 +25°C° 1.4 mm 1 m/S 622 mmHg 72%
    12:00 +25°C° 1.4 mm 1 m/S 622 mmHg 74%
    13:00 +25°C° 1.4 mm 1 m/S 621 mmHg 76%
    14:00 +24°C° 1.8 mm 1 m/S 621 mmHg 78%
    15:00 +24°C° 1.8 mm 2 m/S 620 mmHg 81%
    16:00 +23°C° 1.8 mm 2 m/S 620 mmHg 84%
    17:00 +21°C° 1.7 mm 2 m/S 620 mmHg 86%
    18:00 +19°C° 1.7 mm 2 m/S 620 mmHg 89%
    19:00 +18°C° 1.7 mm 2 m/S 620 mmHg 92%
    20:00 +18°C° 0.3 mm 2 m/S 620 mmHg 92%
    21:00 +17°C° 0.3 mm 2 m/S 621 mmHg 92%
    22:00 +17°C° 0.3 mm 2 m/S 621 mmHg 93%
    23:00 +17°C° 0 mm 2 m/S 620 mmHg 92%

    10 Dezember, Dienstag

    Zeit Temperatur Niederschläge Wind Luftdruck Luftfeuchtigkeit
    00:00 +16°C° 0 mm 2 m/S 620 mmHg 92%
    01:00 +16°C° 0 mm 2 m/S 620 mmHg 92%
    02:00 +16°C° 0 mm 2 m/S 620 mmHg 91%
    03:00 +15°C° 0 mm 2 m/S 620 mmHg 91%
    04:00 +15°C° 0 mm 2 m/S 619 mmHg 91%
    05:00 +16°C° 0 mm 2 m/S 620 mmHg 89%
    06:00 +16°C° 0 mm 2 m/S 620 mmHg 86%
    07:00 +17°C° 0 mm 2 m/S 621 mmHg 84%
    08:00 +19°C° 0 mm 2 m/S 622 mmHg 75%
    09:00 +21°C° 0 mm 2 m/S 622 mmHg 66%
    10:00 +24°C° 0 mm 1 m/S 623 mmHg 57%
    11:00 +25°C° 0 mm 1 m/S 623 mmHg 54%
    12:00 +26°C° 0 mm 1 m/S 623 mmHg 52%
    13:00 +28°C° 0 mm 1 m/S 623 mmHg 50%
    14:00 +27°C° 0.3 mm 1 m/S 622 mmHg 55%
    15:00 +26°C° 0.3 mm 1 m/S 622 mmHg 60%
    16:00 +25°C° 0.3 mm 2 m/S 621 mmHg 65%
    17:00 +23°C° 0.1 mm 1 m/S 621 mmHg 71%
    18:00 +20°C° 0.1 mm 1 m/S 620 mmHg 78%
    19:00 +18°C° 0.1 mm 1 m/S 620 mmHg 84%
    20:00 +18°C° 0 mm 1 m/S 620 mmHg 85%
    21:00 +16°C° 0 mm 1 m/S 621 mmHg 86%
    22:00 +16°C° 0 mm 1 m/S 621 mmHg 87%
    23:00 +15°C° 0 mm 2 m/S 621 mmHg 87%

    11 Dezember, Mittwoch

    Zeit Temperatur Niederschläge Wind Luftdruck Luftfeuchtigkeit
    00:00 +15°C° 0 mm 2 m/S 620 mmHg 87%
    01:00 +14°C° 0 mm 2 m/S 620 mmHg 87%
    02:00 +14°C° 0 mm 2 m/S 620 mmHg 86%
    03:00 +13°C° 0 mm 2 m/S 620 mmHg 84%
    04:00 +13°C° 0 mm 2 m/S 619 mmHg 83%
    05:00 +14°C° 0 mm 2 m/S 620 mmHg 80%
    06:00 +15°C° 0 mm 2 m/S 621 mmHg 77%
    07:00 +17°C° 0 mm 2 m/S 621 mmHg 74%
    08:00 +19°C° 0 mm 2 m/S 622 mmHg 65%
    09:00 +23°C° 0 mm 1 m/S 623 mmHg 57%
    10:00 +25°C° 0 mm 1 m/S 624 mmHg 48%
    11:00 +26°C° 0 mm 1 m/S 624 mmHg 44%
    12:00 +27°C° 0 mm 1 m/S 623 mmHg 40%
    13:00 +28°C° 0 mm 2 m/S 623 mmHg 36%
    14:00 +27°C° 0 mm 2 m/S 622 mmHg 41%
    15:00 +27°C° 0 mm 2 m/S 622 mmHg 46%
    16:00 +26°C° 0 mm 2 m/S 621 mmHg 51%
    17:00 +23°C° 0 mm 2 m/S 621 mmHg 56%
    18:00 +20°C° 0 mm 2 m/S 620 mmHg 62%
    19:00 +18°C° 0 mm 1 m/S 620 mmHg 68%
    20:00 +18°C° 0 mm 1 m/S 621 mmHg 66%
    21:00 +16°C° 0 mm 2 m/S 621 mmHg 64%
    22:00 +16°C° 0 mm 2 m/S 621 mmHg 62%
    23:00 +15°C° 0 mm 2 m/S 621 mmHg 65%

    12 Dezember, Donnerstag

    Zeit Temperatur Niederschläge Wind Luftdruck Luftfeuchtigkeit
    00:00 +15°C° 0 mm 2 m/S 621 mmHg 69%
    01:00 +14°C° 0 mm 2 m/S 620 mmHg 73%
    02:00 +14°C° 0 mm 2 m/S 620 mmHg 72%
    03:00 +14°C° 0 mm 2 m/S 620 mmHg 71%
    04:00 +14°C° 0 mm 2 m/S 620 mmHg 70%
    05:00 +15°C° 0 mm 2 m/S 620 mmHg 70%
    06:00 +16°C° 0 mm 2 m/S 621 mmHg 70%
    07:00 +18°C° 0 mm 1 m/S 622 mmHg 69%
    08:00 +20°C° 0 mm 1 m/S 622 mmHg 62%
    09:00 +23°C° 0 mm 1 m/S 623 mmHg 55%
    10:00 +26°C° 0 mm 1 m/S 624 mmHg 48%
    11:00 +26°C° 0 mm 1 m/S 624 mmHg 46%
    12:00 +27°C° 0 mm 2 m/S 623 mmHg 44%
    13:00 +27°C° 0 mm 2 m/S 623 mmHg 42%
    14:00 +27°C° 0 mm 2 m/S 622 mmHg 45%
    15:00 +26°C° 0 mm 2 m/S 622 mmHg 48%
    16:00 +26°C° 0 mm 2 m/S 621 mmHg 50%
    17:00 +24°C° 0 mm 1 m/S 621 mmHg 56%
    18:00 +21°C° 0 mm 1 m/S 621 mmHg 61%
    19:00 +17°C° 0 mm 0 m/S 620 mmHg 67%
    20:00 +17°C° 0 mm 0 m/S 621 mmHg 67%
    21:00 +18°C° 0 mm 1 m/S 621 mmHg 67%
    22:00 +18°C° 0 mm 1 m/S 621 mmHg 66%
    23:00 +18°C° 0 mm 1 m/S 621 mmHg 67%
    Mehr zeigen